This demonstration page uses our WeatherBlox Daily Observations layout. Learn more.

Left ArrowRight Arrow

Hourly Observations for May 8, 2015

Temp ( °F °C ) Dew Point ( °F °C ) Humidity (%) Winds ( mph kmh ) Pressure ( in mb ) Visibility ( mi km ) Precip ( " mm )
12:53 am 00:53 Clear 67 19.4 53 11.7 61 61 E 8 13 29.67 1005 10 16 0.00 0.00
1:53 am 01:53 Clear 68 20 55 12.8 63 63 E 9 15 29.67 1005 10 16 0.00 0.00
2:53 am 02:53 Clear 67 19.4 56 13.3 68 68 E 8 13 29.67 1005 10 16 0.00 0.00
3:26 am 03:26 Mostly Cloudy 67 19.4 56 13.3 68 68 E 8 13 29.71 1006 10 16 0.00 0.00
3:53 am 03:53 Mostly Cloudy 67 19.4 57 13.9 71 71 E 10 17 29.65 1004 10 16 0.00 0.00
4:53 am 04:53 Mostly Cloudy 68 20 59 15 73 73 E 9 15 29.66 1004 10 16 0.00 0.00
5:53 am 05:53 Cloudy 68 20 59 15 73 73 E 7 11 29.67 1005 10 16 0.00 0.00
6:53 am 06:53 Mostly Cloudy 67 19.4 59 15 76 76 N 5 7 29.69 1005 10 16 0.00 0.00
7:53 am 07:53 Partly Cloudy 69 20.6 59 15 70 70 N 8 13 29.71 1006 10 16 0.00 0.00
8:21 am 08:21 Mostly Cloudy 71 21.7 59 15 66 66 N 9 15 29.74 1007 10 16 0.00 0.00
8:53 am 08:53 Partly Cloudy 71 21.7 60 15.6 68 68 N 8 13 29.73 1007 10 16 0.00 0.00
9:53 am 09:53 Sunny 75 23.9 63 17.2 66 66 Calm 29.73 1007 9 14 0.00 0.00
10:00 am 10:00 Mostly Sunny 75 24 63 17 65 65 Calm 29.71 1006 8 13 0.00 0.00
10:53 am 10:53 Sunny 79 26.1 62 16.7 56 56 WSW 7 11 29.74 1007 10 16 0.00 0.00
11:53 am 11:53 Sunny 83 28.3 57 13.9 41 41 undefined N/A 29.73 1007 10 16 0.00 0.00
12:53 pm 12:53 Sunny 87 30.6 51 10.6 29 29 VRB 5 7 29.72 1006 10 16 0.00 0.00
1:53 pm 13:53 Sunny 89 31.7 43 6.1 20 20 SSW 8 13 29.70 1006 10 16 0.00 0.00
2:53 pm 14:53 Sunny 89 31.7 39 3.9 17 17 Calm 29.68 1005 10 16 0.00 0.00
3:53 pm 15:53 Sunny 91 32.8 39 3.9 16 16 S 13 20 29.65 1004 10 16 0.00 0.00
4:53 pm 16:53 Sunny 91 32.8 33 0.6 13 13 S 5 7 29.61 1003 10 16 0.00 0.00
5:53 pm 17:53 Sunny 92 33.3 33 0.6 12 12 Calm 29.58 1002 10 16 0.00 0.00
6:53 pm 18:53 Sunny 92 33.3 31 -0.6 11 11 VRB 3 6 29.57 1001 10 16 0.00 0.00
7:53 pm 19:53 Sunny 91 32.8 32 0 12 12 ENE 6 9 29.56 1001 10 16 0.00 0.00
8:53 pm 20:53 Clear 83 28.3 35 1.7 18 18 E 10 17 29.57 1002 10 16 0.00 0.00
9:53 pm 21:53 Clear 83 28.3 56 13.3 40 40 ESE 13 20 29.57 1001 10 16 0.00 0.00
10:53 pm 22:53 Clear 80 26.7 62 16.7 54 54 SE 15 24 29.58 1002 10 16 0.00 0.00
11:53 pm 23:53 Clear 77 25 64 17.8 64 64 SE 18 30 29.60 1002 10 16 0.00 0.00

Powered by AerisWeather